Date String (YYYY-MM-DD hh:mm:ss) UTC,Instrument flags,Ambient pressure (hPa),Sample flow (lpm),Bypass flow (lpm),Sample temperature (°C),Ambient temperature (°C),ASC tube jacket temperature (°C),LED temperature (°C),Box temperature (°C),Sample RH (%),Span deviation,Mass concentration (μg/m³),Mass concentration (μg/m³),Mass concentration (μg/m³)
DateTimeUTC,F1_M11,P_M11,Q1_M11,Q2_M11,T1_M11,T2_M11,T3_M11,T4_M11,T5_M11,U1_M11,ZSPAN_M11,X0_M11,X2_M11,X1_M11
2022-06-30 15:00:00,,0829.0,5.00,0.00,29.7,27.5,00.0,38.5,31.4,31.3,0000.0,0012.44,0004.40,0003.71
2022-06-30 15:01:00,,0829.0,4.99,0.00,29.7,27.7,00.0,38.5,31.4,31.6,0000.0,0012.56,0004.43,0003.71
2022-06-30 15:02:00,,0829.0,5.00,0.00,29.7,27.8,00.0,38.5,31.4,31.8,0000.0,0012.87,0004.46,0003.71
2022-06-30 15:03:00,,0829.1,5.00,0.00,29.7,28.0,00.0,38.5,31.5,31.0,0000.0,0012.84,0004.44,0003.70
2022-06-30 15:04:00,,0829.1,5.00,0.00,29.7,28.1,00.0,38.5,31.5,31.6,0000.0,0012.96,0004.41,0003.69
2022-06-30 15:05:00,,0829.1,5.00,0.00,29.7,28.3,00.0,38.5,31.6,31.2,0000.0,0012.30,0004.39,0003.69
2022-06-30 15:06:00,,0829.1,5.00,0.00,29.7,28.4,00.0,38.5,31.6,31.1,0000.0,0012.08,0004.34,0003.69
2022-06-30 15:07:00,,0829.1,4.99,0.00,29.8,28.5,00.0,38.5,31.6,31.3,0000.0,0011.46,0004.35,0003.69
2022-06-30 15:08:00,,0829.2,4.99,0.00,29.8,28.6,00.0,38.5,31.7,31.1,0000.0,0011.19,0004.35,0003.69
2022-06-30 15:09:00,,0829.2,5.01,0.00,29.8,28.7,00.0,38.5,31.7,30.8,0000.0,0010.35,0004.31,0003.68
2022-06-30 15:10:00,,0829.3,4.99,0.00,29.8,28.7,00.0,38.5,31.7,30.6,0000.0,0010.10,0004.34,0003.68
2022-06-30 15:11:00,,0829.2,5.01,0.00,29.8,28.2,00.0,38.5,31.7,30.3,0000.0,0010.43,0004.35,0003.67
2022-06-30 15:12:00,,0829.3,4.99,0.00,29.8,27.5,00.0,38.4,31.5,30.6,0000.0,0010.59,0004.36,0003.67
2022-06-30 15:13:00,,0829.2,4.99,0.00,29.7,27.2,00.0,38.4,31.4,30.8,0000.0,0010.24,0004.34,0003.67
2022-06-30 15:14:00,,0829.3,5.01,0.00,29.6,27.2,00.0,38.4,31.3,31.1,0000.0,0010.33,0004.36,0003.66
2022-06-30 15:15:00,,0829.2,5.00,0.00,29.6,27.3,00.0,38.4,31.3,31.4,0000.0,0010.63,0004.34,0003.66
2022-06-30 15:16:00,,0829.2,5.01,0.00,29.5,27.4,00.0,38.4,31.3,31.1,0000.0,0010.72,0004.32,0003.66
2022-06-30 15:17:00,,0829.2,4.98,0.00,29.5,27.6,00.0,38.4,31.3,31.4,0000.0,0010.75,0004.33,0003.65
2022-06-30 15:18:00,,0829.2,4.99,0.00,29.5,27.8,00.0,38.3,31.3,31.3,0000.0,0011.13,0004.32,0003.65
2022-06-30 15:19:00,,0829.1,4.99,0.00,29.5,27.9,00.0,38.3,31.4,30.9,0000.0,0011.59,0004.34,0003.65
2022-06-30 15:20:00,,0829.1,5.00,0.00,29.6,28.0,00.0,38.3,31.4,30.8,0000.0,0011.99,0004.34,0003.66
2022-06-30 15:21:00,,0829.1,4.99,0.00,29.6,28.2,00.0,38.4,31.5,31.0,0000.0,0010.97,0004.31,0003.68
2022-06-30 15:22:00,,0829.1,4.99,0.00,29.6,28.3,00.0,38.4,31.5,30.7,0000.0,0010.33,0004.30,0003.69
2022-06-30 15:23:00,,0829.1,5.01,0.00,29.6,28.4,00.0,38.4,31.5,30.7,0000.0,0010.13,0004.30,0003.70
2022-06-30 15:24:00,,0829.1,5.00,0.00,29.6,28.5,00.0,38.4,31.6,30.8,0000.0,0010.17,0004.32,0003.71
2022-06-30 15:25:00,,0829.2,5.00,0.00,29.7,28.6,00.0,38.4,31.6,30.7,0000.0,0010.03,0004.30,0003.72
2022-06-30 15:26:00,,0829.2,5.00,0.00,29.7,28.7,00.0,38.4,31.6,31.0,0000.0,0009.92,0004.30,0003.73
2022-06-30 15:27:00,,0829.2,5.00,0.00,29.7,28.7,00.0,38.4,31.7,31.7,0000.0,0009.78,0004.34,0003.75
2022-06-30 15:28:00,,0829.2,5.01,0.00,29.8,28.6,00.0,38.4,31.7,31.1,0000.0,0010.01,0004.34,0003.76
2022-06-30 15:29:00,,0829.3,5.01,0.00,29.7,27.9,00.0,38.4,31.6,31.3,0000.0,0010.40,0004.34,0003.77
2022-06-30 15:30:00,,0829.3,4.99,0.00,29.7,27.3,00.0,38.4,31.4,31.4,0000.0,0010.06,0004.33,0003.78
2022-06-30 15:31:00,,0829.2,5.01,0.00,29.6,27.1,00.0,38.3,31.4,32.1,0000.0,0009.76,0004.34,0003.78
2022-06-30 15:32:00,,0829.2,5.00,0.00,29.5,27.2,00.0,38.3,31.3,32.5,0000.0,0009.47,0004.38,0003.78
2022-06-30 15:33:00,,0829.3,5.00,0.00,29.5,27.3,00.0,38.3,31.3,32.5,0000.0,0009.54,0004.39,0003.78
2022-06-30 15:34:00,,0829.3,5.00,0.00,29.5,27.5,00.0,38.3,31.3,32.5,0000.0,0009.57,0004.38,0003.78
2022-06-30 15:35:00,,0829.3,5.00,0.00,29.5,27.7,00.0,38.3,31.3,32.7,0000.0,0009.55,0004.36,0003.78
2022-06-30 15:36:00,,0829.2,5.00,0.00,29.5,27.8,00.0,38.3,31.3,31.9,0000.0,0009.58,0004.36,0003.78
2022-06-30 15:37:00,,0829.2,5.00,0.00,29.5,28.0,00.0,38.3,31.4,31.8,0000.0,0009.32,0004.35,0003.77
2022-06-30 15:38:00,,0829.4,5.00,0.00,29.5,28.1,00.0,38.3,31.4,32.1,0000.0,0009.86,0004.36,0003.77
2022-06-30 15:39:00,,0829.4,5.01,0.00,29.5,28.2,00.0,38.3,31.5,32.0,0000.0,0009.75,0004.32,0003.77
2022-06-30 15:40:00,,0829.3,5.01,0.00,29.6,28.3,00.0,38.3,31.5,32.1,0000.0,0008.96,0004.31,0003.77
2022-06-30 15:41:00,,0829.3,5.01,0.00,29.6,28.4,00.0,38.3,31.5,31.9,0000.0,0008.55,0004.27,0003.76
2022-06-30 15:42:00,,0829.3,5.00,0.00,29.6,28.5,00.0,38.3,31.6,32.2,0000.0,0008.64,0004.25,0003.75
2022-06-30 15:43:00,,0829.4,5.00,0.00,29.6,28.6,00.0,38.4,31.6,31.9,0000.0,0009.33,0004.22,0003.75
2022-06-30 15:44:00,,0829.4,5.00,0.00,29.7,28.7,00.0,38.4,31.7,31.7,0000.0,0009.35,0004.21,0003.74
2022-06-30 15:45:00,,0829.5,5.01,0.00,29.7,28.6,00.0,38.4,31.7,31.9,0000.0,0010.39,0004.18,0003.74
2022-06-30 15:46:00,,0829.5,5.00,0.00,29.7,28.0,00.0,38.4,31.6,31.4,0000.0,0011.00,0004.16,0003.74
2022-06-30 15:47:00,,0829.5,5.01,0.00,29.6,27.4,00.0,38.3,31.4,31.1,0000.0,0011.10,0004.17,0003.73
2022-06-30 15:48:00,,0829.5,4.99,0.00,29.6,27.2,00.0,38.3,31.3,30.9,0000.0,0011.09,0004.18,0003.72
2022-06-30 15:49:00,,0829.5,5.00,0.00,29.5,27.2,00.0,38.3,31.3,30.0,0000.0,0010.43,0004.15,0003.71
2022-06-30 15:50:00,,0829.5,5.00,0.00,29.5,27.4,00.0,38.3,31.2,30.9,0000.0,0010.34,0004.16,0003.69
2022-06-30 15:51:00,,0829.4,5.00,0.00,29.4,27.5,00.0,38.3,31.3,31.1,0000.0,0010.68,0004.15,0003.67
2022-06-30 15:52:00,,0829.5,5.00,0.00,29.4,27.7,00.0,38.3,31.3,30.7,0000.0,0011.31,0004.16,0003.66
2022-06-30 15:53:00,,0829.5,4.99,0.00,29.4,27.8,00.0,38.3,31.3,31.2,0000.0,0011.46,0004.18,0003.65
2022-06-30 15:54:00,,0829.5,5.00,0.00,29.5,28.0,00.0,38.3,31.3,30.0,0000.0,0010.56,0004.16,0003.64
2022-06-30 15:55:00,,0829.6,5.00,0.00,29.5,28.1,00.0,38.3,31.4,29.8,0000.0,0010.37,0004.11,0003.62
2022-06-30 15:56:00,,0829.5,4.99,0.00,29.5,28.2,00.0,38.3,31.4,30.0,0000.0,0009.47,0004.10,0003.58
2022-06-30 15:57:00,,0829.5,5.01,0.00,29.5,28.4,00.0,38.3,31.5,30.4,0000.0,0009.25,0004.10,0003.55
2022-06-30 15:58:00,,0829.6,5.00,0.00,29.6,28.5,00.0,38.3,31.5,30.3,0000.0,0009.11,0004.10,0003.54
2022-06-30 15:59:00,,0829.6,5.00,0.00,29.6,28.5,00.0,38.3,31.6,29.7,0000.0,0009.18,0004.11,0003.53
